Regional Weather Roundup
Issued by NWS Grand Forks, ND

Home | Current Version | Previous Version | Text Only | Print | Product List | Glossary Off
Versions: 1 2 3 4 5 6 7 8 9 10 11 12 13 14 15 16 17 18 19 20 21 22 23 24 25 26 27 28 29 30 31 32 33 34 35 36 37 38 39 40 41 42 43 44 45 46 47 48 49 50

487
ASUS43 KFGF 310410
RWRFGF
PRAIRIE TO PINES  WEATHER ROUNDUP
NATIONAL WEATHER SERVICE EASTERN NORTH DAKOTA/GRAND FORKS ND
1100 PM CDT MON MAY 30 2016

 **SATELLITE DATA USED TO AUGMENT SKY COVER AT AUTOMATED STATIONS**
 *****  WEATHER ACROSS EASTERN NORTH DAKOTA  *****

CITY           SKY/WX    TMP DP  RH WIND       PRES   REMARKS
GRAND FORKS    RAIN      60  57  89 E8        29.85R
GRAND FRKS AFB NOT AVBL
GRAND FRKS NWS   N/A     57 N/A N/A E5          N/A
DEVILS LAKE    LGT RAIN  60  54  80 E20G25    29.79F
FARGO          CLOUDY    65  57  75 N20G25    29.73F
WAHPETON ARPT  CLOUDY    72  52  49 SE17      29.74F
$$

 ***** WEATHER ACROSS CENTRAL AND WESTERN NORTH DAKOTA  *****

CITY           SKY/WX    TMP DP  RH WIND       PRES   REMARKS
BISMARCK       LGT RAIN  56  55  97 W12       29.84R
MINOT          LGT RAIN  58  55  90 NW6       29.87R
JAMESTOWN      TSTM      57  56  96 E13       29.70F
MINOT AFB      NOT AVBL
GARRISON         N/A     55  53  93 NW7       29.87R
WILLISTON      RAIN      53  51  93 W9        29.90F FOG
DICKINSON      PTCLDY    51  48  89 W20       29.91S
HETTINGER      PTCLDY    50  47  89 NW15      29.94F
$$

 *****  OTHER AIRPORT OBSERVATIONS IN OUR AREA  *****

CITY           SKY/WX    TMP DP  RH WIND       PRES   REMARKS
WALHALLA       FAIR      61  57  88 SE6       29.85F
GRAFTON AIRPOR MOCLDY    61  57  88 NE10      29.85F
VALLEY CITY AR TSTM      55  55 100 SE8       29.83S
CANDO          NOT AVBL
CAVALIER APRT  FAIR      63  55  77 SE6       29.85S
GWINNER        CLOUDY    61  57  88 N8        29.80R
SHEYENNE NWR     N/A     58  56  94 NW15      29.95S
ROLLA          CLOUDY    57  55  94 CALM      29.85F
 ***** THE ABOVE OBSERVATIONS ARE NON NWS ARE NOT QUALITY
       CONTROLLED AND MAY MIS-REPORT RAIN FOR SNOW...
$$

  *****  WEATHER ACROSS NORTHERN MINNESOTA  *****

CITY           SKY/WX    TMP DP  RH WIND       PRES   REMARKS
FLAG ISLAND    CLOUDY    63  48  59 E9        29.94S
WARROAD        CLOUDY    63  57  82 E15G23    29.93S
ROSEAU         MOCLDY    64  55  72 E16       29.89F
HALLOCK        LGT RAIN  63  61  94 E3        29.86F
THF RVR FALLS  CLOUDY    61  54  77 W10G23    29.90R
BAUDETTE       PTCLDY    62  49  62 E14       29.93R
WASKISH        CLOUDY    64  52  63 E10       29.91S
CROOKSTON      RAIN      57  57 100 NE10      29.85F
STEPHEN NDAWN    N/A     61  57  88 NE8         N/A
GREENBUSH NDAW   N/A     63  55  77 NE12        N/A
$$
  *****  WEATHER ACROSS CENTRAL AND WEST MINNESOTA  *****

CITY           SKY/WX    TMP DP  RH WIND       PRES   REMARKS
FOSSTON        CLOUDY    64  52  63 E8        29.83F
BEMIDJI        CLOUDY    63  55  74 E8        29.87F
PARK RAPIDS    CLOUDY    65  56  72 NE8       29.86F
ELBOW LAKE     FAIR      73  54  52 SE17G28   29.80R
WADENA         CLOUDY    70  54  56 E10       29.84F
DETROIT LAKES  CLOUDY    68  54  60 SE16G24   29.80F
MOORHEAD       CLOUDY    73  54  49 SE18G26   29.71F
FERGUS FALLS   CLOUDY    72  55  56 SE15      29.74S
MORRIS MN      PTCLDY    72  57  60 SE15      29.78F
STAPLES        CLOUDY    68  52  56 E3        29.86S
$$
  *****  WEATHER ELSEWHERE ACROSS MINNESOTA  *****

CITY           SKY/WX    TMP DP  RH WIND       PRES   REMARKS
DULUTH         LGT RAIN  66  47  50 E14       29.97R
INTRNTL FALLS  PTCLDY    60  49  66 E10       29.98R
ELY            CLEAR     61  48  63 E8        30.01R
CLOQUET        PTCLDY    63  45  51 E5        29.96R
WHEATON        CLOUDY    75  57  53 SE16      29.76F
BRAINERD       PTCLDY    68  53  58 SE6       29.89F
HIBBING        CLOUDY    65  46  50 SE12      29.96R
ALEXANDRIA     TSTM      71  53  52 SE20G30   29.85R
SAINT CLOUD    PTCLDY    73  52  47 E8        29.87S
MINNEAPOLIS    LGT RAIN  74  52  46 SE10      29.89S
$$

  *****  WEATHER ACROSS SOUTH DAKOTA  *****

CITY           SKY/WX    TMP DP  RH WIND       PRES   REMARKS
SIOUX FALLS    CLOUDY    71  59  65 S22G29    29.78F
BROOKINGS      CLOUDY    69  57  65 SE12      29.75F
WATERTOWN      CLOUDY    72  55  55 SE7       29.74F
HURON          CLOUDY    64  58  80 W18G25    29.78R
SISSETON         N/A     68  51  54 NW22      29.77R
ABERDEEN       CLOUDY    59  56  89 NE9       29.77F
MITCHELL       CLOUDY    71  58  63 NW20G25   29.78R
PIERRE         CLOUDY    58  55  90 W13       29.87R
MOBRIDGE       CLOUDY    58  54  86 NW13      29.81R
RAPID CITY     CLEAR     52  41  66 NW18      29.99S
$$

  *****  SOME WEATHER IN NEARBY STATES *****

CITY           SKY/WX    TMP DP  RH WIND       PRES   REMARKS
GLASGOW MT     CLOUDY    50  42  74 W12       29.95S
GREAT FALLS MT CLOUDY    50  39  66 CALM      30.20R
CHEYENNE WY    CLOUDY    56  44  64 NE9       30.10R
SCOTTSBLUFF NE LGT RAIN  56  47  71 N17       30.03R
OMAHA NE       CLOUDY    69  61  75 S15G21    29.91R
DES MOINES IA  CLOUDY    72  55  55 S6        29.92R
DAVENPORT IA   CLEAR     75  62  64 SW6       29.97R
CHICAGO IL     MOCLDY    70  54  56 E7        29.99R
EAU CLAIRE WI  CLOUDY    67  56  67 CALM      29.94S
LA CROSSE WI   CLOUDY    71  56  58 SE6       29.93S
$$

  *****  SOME NATIONAL WEATHER *****

CITY           SKY/WX    TMP DP  RH WIND       PRES   REMARKS
LA GUARDIA NY  CLOUDY    74  72  93 SW12      29.95S
RALEIGH NC     LGT RAIN  71  70  96 CALM      29.96S
ATLANTA GA     MOCLDY    78  60  53 NW5       29.96S
NEW ORLEANS LA PTCLDY    77  69  76 VRB3      29.96S
OKLAHOMA CITY  PTCLDY    71  67  87 SE12      29.93R
ALBUQUERQUE NM MOCLDY    70  30  22 SE7       30.00R
SALT LAKE CITY PTCLDY    71  42  35 NW8       30.03R
LOS ANGELES CA MOCLDY    60  55  83 W12       29.92S
BOISE ID       CLEAR     67  30  25 S3        30.07R
SEATTLE WA     MOCLDY    62  42  47 N8        30.20S
$$

*** WEATHER ACROSS MANITOBA...SASKATCHEWAN AND ONTARIO ***
                ***ONTARIO***

CITY           SKY/WX    TMP DP  RH WIND       PRES   REMARKS
GERALDTON      CLEAR     43  39  87 N5        30.10R
THUNDER BAY    CLEAR     50  43  76 NE3       30.10R
SIOUX LOOKOUT  CLEAR     50  45  81 E3        30.08S
TORONTO        CLEAR     68  52  56 N8        29.97R
BIG TROUT LK   CLEAR     41  32  70 NE6       30.19R
PICKLE LAKE    NOT AVBL
DRYDEN         PTCLDY    52  46  82 E8        30.05R
KENORA         MOCLDY    57  46  67 E14G22    30.00F
$$
                *** MANITOBA***

CITY           SKY/WX    TMP DP  RH WIND       PRES   REMARKS
BRANDON        CLOUDY    63  54  72 NE21G26   29.85F
DAUPHIN        MOCLDY    57  52  82 NE12      29.94S
ISLAND LAKE    PTCLDY    46  37  71 E8        30.15R
PILOT MOUND      N/A     61  55  82 S6          N/A
THE PAS        MOCLDY    54  46  76 SE5       30.10R
THOMPSON       PTCLDY    48  36  61 NE7       30.18R
WINNIPEG       MOCLDY    64  52  63 E18       29.90R
LYNN LAKE      CLOUDY    45  41  87 E3        30.19R
CHURCHILL      PTCLDY    28  25  86 E10       30.40R WCI  19
GILLAM         PTCLDY    36  28  75 NE13G20   30.28R
$$
                ***SASKATCHEWAN***

CITY           SKY/WX    TMP DP  RH WIND       PRES   REMARKS
ESTEVAN        LGT RAIN  54  52  94 N10       29.90R
KINDERSLEY     CLOUDY    52  50  93 N18G28    30.05R
LLOYDMINSTER   CLOUDY    52  48  87 NW14      30.11R
PRINCE ALBERT  MOCLDY    50  46  87 E6        30.03R
REGINA         LGT RAIN  54  52  94 E9        29.94R
YORKTON        CLOUDY    59  50  72 NE9       29.95R
N. BATTLEFORD  CLOUDY    57  46  67 N12       30.06R
LA RONGE       CLOUDY    52  48  87 NE7       30.11R
SASKATOON      PTCLDY    52  46  82 NE6       30.03R
SWIFT CURRENT  LGT RAIN  50  50 100 N9        29.95R
$$
NOTE: THESE ARE AUTOMATED STATIONS WITH LIMITED QUALITY CONTROL
      "FAIR" INDICATES FEW OR NO CLOUDS BELOW 12,000 FEET WITH NO
      SIGNIFICANT WEATHER AND/OR OBSTRUCTIONS TO VISIBILITY.
      SKY/WX - SKY CONDITION AND SIGNIFICANT WEATHER.
      TMP - AIR TEMPERATURE.    DP   - DEWPOINT TEMPERATURE.
      RH  - RELATIVE HUMIDITY.  PRES - PRESSURE.
      HX  - HEAT INDEX.         WCI  - WIND CHILL INDEX.
$




USA.gov is the U.S. government's official web portal to all federal, state and local government web resources and services.